DW2213 Weather Reports


Display with metric or nautical units.
time (UTC)temp
F
wind
direction
speed
MPH
gust
MPH
rain 1hr
in
rain 24hr
in
rain mn
in
humidity
%
barometer
mb
20260904115805 92 95 0.0 6.0 0.00 0.00 0.00 65 1014.5
20260904115306 92 130 0.0 5.0 0.00 0.00 0.00 65 1014.5
20260904114805 91 135 1.0 6.0 0.00 0.00 0.00 67 1014.5
20260904114305 91 116 1.0 3.0 0.00 0.00 0.00 67 1014.6
20260904113804 91 136 1.0 5.0 0.00 0.00 0.00 66 1014.6
20260904113304 90 104 0.0 6.0 0.00 0.00 0.00 67 1014.6
20260904112804 90 134 1.0 6.0 0.00 0.00 0.00 67 1014.6
20260904112306 91 131 1.0 5.0 0.00 0.00 0.00 67 1014.8
20260904111805 90 128 1.0 5.0 0.00 0.00 0.00 67 1014.9
20260904111305 90 131 1.0 6.0 0.00 0.00 0.00 67 1014.9
20260904110805 90 154 0.0 5.0 0.00 0.00 0.00 68 1014.9
20260904110305 90 123 1.0 6.0 0.00 0.00 0.00 68 1015.0
20260904105805 90 131 1.0 5.0 0.00 0.00 0.00 69 1015.1
20260904105306 89 136 1.0 5.0 0.00 0.00 0.00 69 1015.1
20260904104804 89 134 1.0 6.0 0.00 0.00 0.00 69 1015.2
20260904102805 90 146 0.0 1.0 0.00 0.00 0.00 68 1015.4
20260904101805 89 146 0.0 0.0 0.00 0.00 0.00 69 1015.5
20260904101304 89 127 0.0 0.0 0.00 0.00 0.00 68 1015.5
20260904100804 89 140 0.0 0.0 0.00 0.00 0.00 68 1015.4
20260904100306 89 127 0.0 0.0 0.00 0.00 0.00 68 1015.5
20260904094805 88 144 0.0 1.0 0.00 0.00 0.00 68 1015.6
20260904093805 87 134 0.0 1.0 0.00 0.00 0.00 68 1015.6
20260904093304 87 133 0.0 0.0 0.00 0.00 0.00 70 1015.6
20260904092805 87 133 0.0 0.0 0.00 0.00 0.00 69 1015.6
20260904092306 87 132 0.0 1.0 0.00 0.00 0.00 70 1015.6
20260904091805 87 123 0.0 0.0 0.00 0.00 0.00 69 1015.5
20260904091305 87 123 0.0 0.0 0.00 0.00 0.00 69 1015.6
20260904090805 86 123 0.0 0.0 0.00 0.00 0.00 69 1015.6
20260904090304 86 123 0.0 0.0 0.00 0.00 0.00 70 1015.6
20260904085804 86 122 0.0 0.0 0.00 0.00 0.00 73 1015.6
20260904084804 85 122 0.0 0.0 0.00 0.00 0.00 75 1015.5
20260904084305 85 122 0.0 0.0 0.00 0.00 0.00 75 1015.5
20260904083804 85 122 0.0 0.0 0.00 0.00 0.00 76 1015.4
20260904083305 84 121 0.0 0.0 0.00 0.00 0.00 76 1015.5
20260904082804 84 121 0.0 0.0 0.00 0.00 0.00 77 1015.5
20260904081805 83 121 0.0 0.0 0.00 0.00 0.00 78 1015.4
20260904080804 82 121 0.0 0.0 0.00 0.00 0.00 80 1015.3
20260904080304 82 121 0.0 0.0 0.00 0.00 0.00 81 1015.3
20260904075805 81 121 0.0 0.0 0.00 0.00 0.00 81 1015.3
20260904075306 81 121 0.0 0.0 0.00 0.00 0.00 81 1015.3
20260904074804 81 121 0.0 0.0 0.00 0.00 0.00 82 1015.3
20260904074305 81 121 0.0 0.0 0.00 0.00 0.00 83 1015.3
20260904073804 80 121 0.0 0.0 0.00 0.00 0.00 84 1015.3
20260904073304 80 121 0.0 0.0 0.00 0.00 0.00 84 1015.4
20260904072805 80 121 0.0 0.0 0.00 0.00 0.00 85 1015.4
20260904072306 79 121 0.0 0.0 0.00 0.00 0.00 85 1015.4
20260904071804 79 122 0.0 0.0 0.00 0.00 0.00 86 1015.5
20260904071304 78 122 0.0 0.0 0.00 0.00 0.00 87 1015.6
20260904070804 78 122 0.0 0.0 0.00 0.00 0.00 88 1015.6
20260904070305 78 122 0.0 0.0 0.00 0.00 0.00 89 1015.6
20260904065804 77 113 0.0 0.0 0.00 0.00 0.00 89 1015.6
20260904065306 77 110 0.0 0.0 0.00 0.00 0.00 89 1015.6
20260904064305 76 110 0.0 0.0 0.00 0.00 0.00 90 1015.5
20260904063805 76 110 0.0 0.0 0.00 0.00 0.00 90 1015.5
20260904063304 76 110 0.0 0.0 0.00 0.00 0.00 90 1015.5
20260904062804 76 110 0.0 0.0 0.00 0.00 0.00 90 1015.5
20260904062306 76 110 0.0 0.0 0.00 0.00 0.00 90 1015.5
20260904061805 76 110 0.0 0.0 0.00 0.00 0.00 90 1015.5
20260904061305 76 110 0.0 0.0 0.00 0.00 0.00 90 1015.5
20260904060805 76 110 0.0 0.0 0.00 0.00 0.00 90 1015.5
20260904060304 76 110 0.0 0.0 0.00 0.00 0.00 90 1015.4
20260904053805 76 110 0.0 0.0 0.00 0.00 0.00 90 1015.3
20260904053305 76 110 0.0 0.0 0.00 0.00 0.00 90 1015.3
20260904052307 76 110 0.0 0.0 0.00 0.00 0.00 90 1015.3
20260904051804 76 110 0.0 0.0 0.00 0.00 0.00 91 1015.2
20260904051305 76 110 0.0 0.0 0.00 0.00 0.00 91 1015.3
20260904050804 76 110 0.0 0.0 0.00 0.00 0.00 91 1015.3
20260904045804 76 110 0.0 0.0 0.00 0.00 0.00 91 1015.3
20260904045306 76 110 0.0 0.0 0.00 0.00 0.00 91 1015.4
20260904044804 76 110 0.0 0.0 0.00 0.00 0.00 91 1015.4
20260904044305 76 110 0.0 0.0 0.00 0.00 0.00 91 1015.4
20260904043804 76 110 0.0 0.0 0.00 0.00 0.00 91 1015.4
20260904043304 76 110 0.0 0.0 0.00 0.00 0.00 91 1015.4
20260904042804 76 110 0.0 0.0 0.00 0.00 0.00 91 1015.4
20260904041804 76 110 0.0 0.0 0.00 0.00 0.00 91 1015.4
20260904041305 76 110 0.0 0.0 0.00 0.00 0.00 90 1015.4
20260904040304 76 110 0.0 0.0 0.00 0.00 0.00 90 1015.4
20260904035805 76 110 0.0 0.0 0.00 0.00 0.00 90 1015.4
20260904035306 76 110 0.0 0.0 0.00 0.00 0.00 90 1015.4
20260904034805 76 110 0.0 0.0 0.00 0.00 0.00 90 1015.4
20260904034304 76 110 0.0 0.0 0.00 0.00 0.00 90 1015.5
20260904033804 77 110 0.0 0.0 0.00 0.00 0.00 90 1015.5
20260904032804 77 110 0.0 0.0 0.00 0.00 0.00 90 1015.5
20260904032306 77 110 0.0 0.0 0.00 0.00 0.00 89 1015.5
20260904031804 77 110 0.0 0.0 0.00 0.00 0.00 89 1015.5
20260904030804 77 110 0.0 0.0 0.00 0.00 0.00 89 1015.5
20260904030304 77 110 0.0 0.0 0.00 0.00 0.00 89 1015.6
20260904025804 77 109 0.0 0.0 0.00 0.00 0.00 89 1015.7
20260904025306 77 109 0.0 0.0 0.00 0.00 0.00 89 1015.8
20260904024804 77 109 0.0 0.0 0.00 0.00 0.00 88 1015.8
20260904024305 78 109 0.0 0.0 0.00 0.00 0.00 88 1015.8
20260904023804 78 109 0.0 0.0 0.00 0.00 0.00 88 1015.8
20260904023304 78 109 0.0 0.0 0.00 0.00 0.00 88 1015.8
20260904022804 78 109 0.0 0.0 0.00 0.00 0.00 88 1015.8
20260904021304 78 109 0.0 0.0 0.00 0.00 0.00 89 1015.8
20260904020804 78 109 0.0 0.0 0.00 0.00 0.00 89 1015.8
20260904020305 78 109 0.0 0.0 0.00 0.00 0.00 89 1015.8
20260904015804 78 109 0.0 0.0 0.00 0.00 0.00 88 1015.8
20260904015306 78 109 0.0 0.0 0.00 0.00 0.00 89 1015.9
20260904014804 78 108 0.0 0.0 0.00 0.00 0.00 89 1015.9
20260904014304 78 108 0.0 0.0 0.00 0.00 0.00 89 1015.9
20260904013805 78 108 0.0 0.0 0.00 0.00 0.00 89 1016.0
20260904012306 78 108 0.0 0.0 0.00 0.00 0.00 89 1016.0
20260904011804 78 109 0.0 0.0 0.00 0.00 0.00 89 1016.0
20260904011304 78 108 0.0 0.0 0.00 0.00 0.00 89 1016.1
20260904010804 78 108 0.0 0.0 0.00 0.00 0.00 89 1016.2
20260904010304 78 108 0.0 0.0 0.00 0.00 0.00 89 1016.3
20260904005804 78 108 0.0 0.0 0.00 0.00 0.00 89 1016.3
20260904005306 78 108 0.0 0.0 0.00 0.00 0.00 89 1016.4
20260904004804 78 108 0.0 0.0 0.00 0.00 0.00 89 1016.4
20260904004304 78 108 0.0 0.0 0.00 0.00 0.00 89 1016.5
20260904003804 78 108 0.0 0.0 0.00 0.00 0.00 89 1016.5
20260904003304 78 108 0.0 0.0 0.00 0.00 0.00 90 1016.5
20260904002804 78 108 0.0 0.0 0.00 0.00 0.00 90 1016.5
20260904002306 78 108 0.0 0.0 0.00 0.00 0.00 90 1016.5
20260904001804 78 108 0.0 0.0 0.00 0.00 0.00 90 1016.6
20260904001304 78 108 0.0 0.0 0.00 0.00 0.00 90 1016.6
20260904000804 78 108 0.0 0.0 0.00 0.00 0.00 90 1016.6
20260904000304 78 108 0.0 0.0 0.00 0.00 0.00 90 1016.6
20260903235305 78 108 0.0 0.0 0.00 0.00 0.00 90 1016.6
20260903234805 78 108 0.0 0.0 0.00 0.00 0.00 90 1016.7
20260903233804 79 108 0.0 0.0 0.00 0.00 0.00 89 1016.8
20260903232804 79 108 0.0 0.0 0.00 0.00 0.00 89 1016.9
20260903232306 79 108 0.0 0.0 0.00 0.00 0.00 89 1016.8
20260903231804 79 108 0.0 0.0 0.00 0.00 0.00 89 1016.9
20260903231304 79 108 0.0 0.0 0.00 0.00 0.00 89 1016.9
20260903230304 80 108 0.0 0.0 0.00 0.00 0.00 89 1016.9
20260903225306 80 108 0.0 0.0 0.00 0.00 0.00 89 1016.9
20260903224804 80 108 0.0 0.0 0.00 0.00 0.00 89 1016.9
20260903223804 80 108 0.0 0.0 0.00 0.00 0.00 88 1016.9
20260903223304 80 108 0.0 0.0 0.00 0.00 0.00 89 1016.8
20260903222306 80 108 0.0 0.0 0.00 0.00 0.00 88 1016.9
20260903221804 80 108 0.0 0.0 0.00 0.00 0.00 88 1017.0
20260903221304 81 108 0.0 0.0 0.00 0.00 0.00 88 1017.1
20260903220816 81 108 0.0 0.0 0.00 0.00 0.00 88 1017.1
20260903220305 81 108 0.0 0.0 0.00 0.00 0.00 88 1017.2
20260903215804 81 108 0.0 0.0 0.00 0.00 0.00 88 1017.2
20260903215306 81 108 0.0 0.0 0.00 0.00 0.00 88 1017.2
20260903214804 81 108 0.0 0.0 0.00 0.00 0.00 88 1017.2
20260903214304 81 108 0.0 0.0 0.00 0.00 0.00 88 1017.2
20260903213804 81 108 0.0 0.0 0.00 0.00 0.00 87 1017.1
20260903213304 81 108 0.0 0.0 0.00 0.00 0.00 87 1017.2
20260903212804 81 108 0.0 0.0 0.00 0.00 0.00 87 1017.2
20260903212306 81 108 0.0 1.0 0.00 0.00 0.00 87 1017.2
20260903211804 81 108 0.0 1.0 0.00 0.00 0.00 87 1017.2
20260903211304 81 109 0.0 0.0 0.00 0.00 0.00 87 1017.3
20260903210804 82 108 0.0 0.0 0.00 0.00 0.00 86 1017.2
20260903205804 82 108 0.0 0.0 0.00 0.00 0.00 86 1017.1
20260903205306 82 109 0.0 0.0 0.00 0.00 0.00 86 1017.2
20260903204804 82 108 0.0 0.0 0.00 0.00 0.00 86 1017.1
20260903204304 82 108 0.0 0.0 0.00 0.00 0.00 86 1017.1
20260903203804 82 108 0.0 0.0 0.00 0.00 0.00 85 1017.1
20260903203304 82 108 0.0 0.0 0.00 0.00 0.00 85 1017.0
20260903202803 82 108 0.0 0.0 0.00 0.00 0.00 85 1017.0
20260903202306 82 108 0.0 0.0 0.00 0.00 0.00 85 1016.9
20260903201804 82 108 0.0 0.0 0.00 0.00 0.00 85 1016.9
20260903201304 82 121 0.0 0.0 0.00 0.00 0.00 85 1016.8
20260903200304 82 121 0.0 1.0 0.00 0.00 0.00 85 1016.7
20260903195804 82 121 0.0 0.0 0.00 0.00 0.00 85 1016.7
20260903195306 82 121 0.0 0.0 0.00 0.00 0.00 85 1016.7
20260903194804 82 121 0.0 0.0 0.00 0.00 0.00 84 1016.6
20260903194304 82 121 0.0 1.0 0.00 0.00 0.00 84 1016.5
20260903193804 82 121 0.0 1.0 0.00 0.00 0.00 84 1016.4
20260903193303 82 121 0.0 1.0 0.00 0.00 0.00 84 1016.4
20260903192804 82 121 0.0 1.0 0.00 0.00 0.00 84 1016.3
20260903192306 82 121 0.0 2.0 0.00 0.00 0.00 84 1016.2
20260903191803 82 121 0.0 0.0 0.00 0.00 0.00 84 1016.1
20260903191304 82 121 0.0 2.0 0.00 0.00 0.00 84 1016.0
20260903190303 83 121 0.0 0.0 0.00 0.00 0.00 83 1015.9
20260903185804 83 121 0.0 1.0 0.00 0.00 0.00 83 1015.8
20260903185306 83 121 0.0 2.0 0.00 0.00 0.00 83 1015.7
20260903184804 83 118 0.0 2.0 0.00 0.00 0.00 83 1015.6
20260903183304 83 146 0.0 1.0 0.00 0.00 0.00 82 1015.5
20260903182803 83 146 1.0 3.0 0.00 0.00 0.00 82 1015.4
20260903182306 83 132 1.0 6.0 0.00 0.00 0.00 82 1015.4
20260903181804 83 111 0.0 3.0 0.00 0.00 0.00 82 1015.5
20260903181304 84 135 1.0 3.0 0.00 0.00 0.00 81 1015.4
20260903180803 84 141 1.0 3.0 0.00 0.00 0.00 81 1015.4
20260903175804 84 128 0.0 5.0 0.00 0.00 0.00 80 1015.4
20260903175306 84 134 0.0 5.0 0.00 0.00 0.00 79 1015.4
20260903174803 84 142 1.0 5.0 0.00 0.00 0.00 78 1015.4
20260903174304 85 126 1.0 5.0 0.00 0.00 0.00 78 1015.4
20260903173804 85 146 2.0 5.0 0.00 0.00 0.00 77 1015.4
20260903173304 85 142 1.0 3.0 0.00 0.00 0.00 77 1015.3
20260903172805 85 113 1.0 7.0 0.00 0.00 0.00 76 1015.3
20260903172306 85 132 1.0 6.0 0.00 0.00 0.00 76 1015.2
20260903171804 85 159 1.0 5.0 0.00 0.00 0.00 76 1015.2
20260903170804 85 121 1.0 6.0 0.00 0.00 0.00 75 1015.2
20260903170305 86 102 2.0 7.0 0.00 0.00 0.00 74 1015.2
20260903165805 86 128 1.0 5.0 0.00 0.00 0.00 74 1015.2
20260903165306 86 134 0.0 3.0 0.00 0.00 0.00 74 1015.2
20260903164805 86 128 1.0 5.0 0.00 0.00 0.00 73 1015.2
20260903163805 87 124 2.0 8.0 0.00 0.00 0.00 71 1015.3
20260903162805 88 132 1.0 6.0 0.00 0.00 0.00 69 1015.2
20260903162306 88 148 2.0 5.0 0.00 0.00 0.00 67 1015.2
20260903161805 88 127 1.0 7.0 0.00 0.00 0.00 66 1015.1
20260903161305 88 137 1.0 3.0 0.00 0.00 0.00 65 1015.2
20260903160805 88 148 2.0 6.0 0.00 0.00 0.00 64 1015.2
20260903160304 89 117 1.0 5.0 0.00 0.00 0.00 65 1015.1
20260903155805 89 135 2.0 7.0 0.00 0.00 0.00 64 1015.1
20260903155306 89 134 2.0 7.0 0.00 0.00 0.00 63 1015.2
20260903154805 89 127 2.0 6.0 0.00 0.00 0.00 62 1015.3
20260903154305 89 134 2.0 7.0 0.00 0.00 0.00 62 1015.3
20260903153805 89 133 1.0 6.0 0.00 0.00 0.00 63 1015.3
20260903153305 89 112 2.0 6.0 0.00 0.00 0.00 62 1015.4
20260903152805 90 136 1.0 8.0 0.00 0.00 0.00 62 1015.5
20260903151804 90 130 1.0 7.0 0.00 0.00 0.00 60 1015.5
20260903151305 90 133 1.0 5.0 0.00 0.00 0.00 61 1015.6
20260903150805 89 142 1.0 6.0 0.00 0.00 0.00 64 1015.6
20260903145805 90 123 3.0 7.0 0.00 0.00 0.00 63 1015.6
20260903145306 90 146 1.0 7.0 0.00 0.00 0.00 64 1015.7
20260903144305 91 143 3.0 6.0 0.00 0.00 0.00 60 1015.8
20260903143805 91 145 3.0 6.0 0.00 0.00 0.00 59 1015.8
20260903142805 91 120 1.0 7.0 0.00 0.00 0.00 61 1016.0
20260903142306 90 159 1.0 7.0 0.00 0.00 0.00 61 1016.0
20260903141804 91 127 2.0 7.0 0.00 0.00 0.00 60 1016.0
20260903141304 91 131 2.0 6.0 0.00 0.00 0.00 59 1016.1
20260903140805 91 146 2.0 5.0 0.00 0.00 0.00 59 1016.1
20260903140305 91 124 3.0 6.0 0.00 0.00 0.00 56 1016.2
20260903135804 92 119 3.0 8.0 0.00 0.00 0.00 54 1016.2
20260903134804 93 134 2.0 6.0 0.00 0.00 0.00 53 1016.2
20260903134304 93 142 2.0 6.0 0.00 0.00 0.00 51 1016.2
20260903133805 93 118 1.0 6.0 0.00 0.00 0.00 54 1016.2
20260903133305 93 134 1.0 7.0 0.00 0.00 0.00 55 1016.2
20260903132804 93 133 2.0 6.0 0.00 0.00 0.00 55 1016.2
20260903131805 92 139 3.0 6.0 0.00 0.00 0.00 56 1016.4
20260903131305 92 151 1.0 5.0 0.00 0.00 0.00 54 1016.5
20260903130805 92 117 1.0 5.0 0.00 0.00 0.00 56 1016.5
20260903130305 92 137 1.0 5.0 0.00 0.00 0.00 57 1016.5
20260903124805 91 120 1.0 7.0 0.00 0.00 0.00 59 1016.6
20260903124305 91 120 1.0 6.0 0.00 0.00 0.00 60 1016.6
20260903123304 91 140 3.0 6.0 0.00 0.00 0.00 62 1016.7
20260903122805 91 127 2.0 6.0 0.00 0.00 0.00 62 1016.8
20260903122306 91 129 0.0 5.0 0.00 0.00 0.00 61 1016.8
20260903121805 91 19 1.0 5.0 0.00 0.00 0.00 62 1016.8
20260903121305 91 114 1.0 6.0 0.00 0.00 0.00 61 1016.8
20260903120305 91 79 0.0 3.0 0.00 0.00 0.00 60 1016.8